Welcome to the New NWS' Forecast!
Most changes are behind the scenes, but click here for differences you might notice.
Latest weather observations around

Caribou, Caribou Municipal Airport (KCAR)

Using English Units (Switch to International System of Units)
Date/ Time (EDT) Wind (mph) Vis. (mi) Weather Sky Cond. Temp (°F) Rel. Humidity Wind Chill (°F) Heat Index (°F) Pressure Precip. (in)
Air Dwpt 6 hour Altimeter (inHg) Sea level (inHg) 1 hr 3 hr 6 hr
Max Min
Aug 15 22:54 3 10 Cloudy OVC037 63 57     81%     29.84 29.84      
Aug 15 21:54 NNW 7 10 Cloudy OVC033 65 60     84%     29.84 29.84      
Aug 15 21:03 Calm 8 Partly Cloudy SCT120 66 64     93%     29.82        
Aug 15 20:54 WNW 3 2.5 Fog/Mist BKN120 65 63     93%     29.82 29.82      
Aug 15 19:54 Calm 10 Clear CLR 68 64     87%     29.79 29.79     0
Aug 15 19:31 Calm 10 Mostly Cloudy FEW050 BKN075 BKN100 68 65     90%     29.78        
Aug 15 19:16 W 5 10 Partly Cloudy FEW080 SCT110 67 65     93%     29.78        
Aug 15 18:54 WSW 6 10 Mostly Clear FEW120 67 64     90%     29.79 29.79 0    
Aug 15 18:35 SSW 7 10 Mostly Cloudy FEW030 BKN120 67 62     84%     29.78   0    
Aug 15 18:20 SSW 8 3 Thunderstorms and Rain FEW020 BKN034 OVC110 66 61     84%     29.78   0    
Aug 15 18:18 S 10 1.25 Thunderstorms and Rain FEW020 BKN032 OVC070 66 61     84%     29.78   0    
Aug 15 18:12 3 0.5 Thunderstorms and Heavy Rain BKN025 BKN050 OVC085 66 60     81%     29.79   0    
Aug 15 18:06 NNW 14 1 Thunderstorms and Heavy Rain SCT020 BKN045 OVC090 68 63     84%     29.81   0    
Aug 15 17:54 W 7 10 Thunderstorms FEW048 BKN090 OVC120 69 64     84%     29.79 29.79      
Aug 15 17:27 SSE 5 10 Mostly Clear FEW110 69 65     87%     29.77        
Aug 15 16:54 SSE 7 10 Clear CLR 69 66     90%     29.77 29.78 0 0  
Aug 15 16:38 SSE 6 10 Mostly Clear FEW110 70 66     87%     29.77   0    
Aug 15 16:23 ESE 7 10 Light Rain FEW042 SCT090 BKN110 70 66     87%     29.77   0    
Aug 15 15:54 SW 8 10 Thunderstorms SCT034 SCT048 BKN065 72 63     73%   72 29.78 29.78      
Aug 15 15:14 NE 10 10 Thunderstorms SCT032 BKN039 BKN049 75 63     66%   75 29.73        
Aug 15 15:04 3 10 Mostly Cloudy SCT035 BKN050 83 69     63%   87 29.73        
Aug 15 14:54 SSW 6 10 Thunderstorms FEW029 SCT037 BKN044 83 69     63%   87 29.73 29.72      
Aug 15 14:36 SSW 11 10 Thunderstorms FEW040 81 69     67%   84 29.72        
Aug 15 13:54 S 10 10 Mostly Clear FEW027 82 70     67%   86 29.74 29.74      
Aug 15 12:54 SSW 9 10 Mostly Clear FEW020 FEW027 80 69     69%   83 29.74 29.74      
Aug 15 12:09 SSW 7 10 Mostly Cloudy BKN017 BKN065 79 69     72%   80 29.75        
Aug 15 11:54 SW 5 10 Mostly Cloudy FEW017 BKN065 BKN120 77 69     77%   78 29.76 29.76      
Aug 15 11:45 SW 8 10 Partly Cloudy FEW017 SCT022 SCT120 77 69     77%   78 29.76        
Aug 15 10:54 SW 9 10 Mostly Cloudy BKN017 BKN025 BKN100 76 68     76%   77 29.77 29.77      
Aug 15 10:09 SSW 9 10 Cloudy FEW013 BKN028 OVC050 75 68     79%   76 29.77        
Aug 15 09:54 SW 8 10 Cloudy FEW013 BKN050 OVC100 74 68     82%   75 29.77 29.77      
Aug 15 08:54 SW 8 10 Cloudy SCT013 OVC090 74 68     82%   75 29.77 29.77      
Aug 15 08:30 SW 8 10 Cloudy BKN011 BKN050 OVC080 74 68     82%   75 29.77        
Aug 15 07:54 SW 6 10 Cloudy FEW011 BKN049 OVC085 72 68     87%   73 29.77 29.77     0
Aug 15 07:34 SSW 6 10 Cloudy FEW016 SCT028 OVC047 71 67     87%   72 29.78        
Aug 15 07:17 SSW 7 10 Cloudy SCT016 BKN022 OVC029 71 67     87%   72 29.77        
Aug 15 06:54 SW 7 10 Mostly Cloudy SCT017 SCT023 BKN038 71 68     90%   72 29.77 29.77      
Aug 15 06:27 SSW 6 10 Mostly Cloudy FEW006 SCT026 BKN110 70 68     93%     29.77        
Aug 15 05:54 SW 7 10 Cloudy OVC022 70 67     90%     29.77 29.76 0    
Aug 15 04:54 SSW 5 9 Light Rain SCT011 BKN018 OVC037 70 68     93%     29.76 29.76 0 0  
Aug 15 04:40 SW 6 5 Light Rain and Fog/Mist SCT010 BKN018 OVC049 70 68     93%     29.77   0    
Aug 15 04:25 SSW 9 2.5 Heavy Rain and Fog/Mist SCT010 BKN023 OVC047 70 68     93%     29.76   0    
Aug 15 03:54 S 7 10 Light Rain BKN012 OVC019 71 67     87%   72 29.77 29.76 0    
Aug 15 03:50 SSW 7 10 Light Rain BKN010 OVC016 72 66     83%   72 29.77   0    
Aug 15 03:10 S 7 10 Cloudy SCT012 OVC020 71 67     87%   72 29.77        
Aug 15 02:54 S 8 10 Cloudy OVC012 71 68     90%   72 29.77 29.77      
Aug 15 02:35 S 7 10 Cloudy BKN013 OVC100 71 68     90%   72 29.78        
Aug 15 01:54 S 5 10 Cloudy SCT013 BKN065 OVC090 72 69     91%   73 29.78 29.78 0   0
Aug 15 01:18 S 5 10 Cloudy SCT013 SCT055 OVC075 72 69     91%   73 29.79   0    
Aug 15 00:54 SSW 6 7 Light Rain OVC014 73 69     87%   74 29.8 29.8 0    
Aug 15 00:21 S 6 10 Cloudy BKN014 OVC028 73 69     87%   74 29.8        
Aug 14 23:54 S 5 10 Cloudy FEW013 BKN026 OVC090 73 68     84%   74 29.8 29.8      
Aug 14 22:54 S 7 10 Cloudy OVC090 73 68     84%   74 29.81 29.8      
Aug 14 21:54 S 6 10 Cloudy OVC080 74 68     82%   75 29.81 29.81      
Aug 14 20:54 S 7 10 Cloudy OVC080 75 68     79%   76 29.81 29.81      
Aug 14 19:54 S 6 10 Mostly Cloudy BKN085 76 69     79%   77 29.81 29.82     0
Aug 14 18:54 S 6 10 Cloudy SCT060 OVC080 78 68     71%   79 29.82 29.82 0    
Aug 14 17:54 SSW 3 9 Light Rain SCT035 BKN048 OVC060 78 69     74%   79 29.82 29.82 0    
Aug 14 16:54 SSE 9 10 Mostly Cloudy FEW044 BKN065 81 69     67%   84 29.82 29.82      
Aug 14 15:54 S 9 10 Mostly Cloudy SCT037 BKN060 82 67     60%   85 29.84 29.84      
Aug 14 14:54 S 8 10 Mostly Clear FEW029 80 67     64%   82 29.87 29.87      
Aug 14 14:33 SSW 9 10 Partly Cloudy SCT029 81 67     62%   83 29.88        
Aug 14 14:16 SSW 7 10 Mostly Cloudy BKN029 80 66     62%   82 29.88        
Aug 14 13:54 SSW 8 10 Partly Cloudy FEW025 SCT031 79 67     67%   80 29.88 29.88      
Notice The following observation data may not be complete
Aug 14 13:43   10 Mostly Cloudy SCT025 BKN031          %              
Aug 14 12:54 S 9 10 Mostly Cloudy BKN023 76 66     71%   77 29.91 29.91      
Aug 14 11:54 SSW 8 10 Cloudy OVC020 77 67     71%   78 29.93 29.93      
Aug 14 11:11 6 10 Cloudy BKN015 OVC021 75 67     76%   76 29.94        
Aug 14 10:54 S 6 10 Cloudy OVC013 74 67     79%   75 29.95 29.95      
Notice The following observation data may not be complete
Aug 14 10:35   10 Cloudy OVC011          %              
Aug 14 09:54 SSW 6 10 Cloudy OVC009 71 66     84%   72 29.95 29.96      
Aug 14 08:54 SSW 7 10 Cloudy OVC005 70 66     87%     29.96 29.96      
Aug 14 08:02 S 6 9 Cloudy OVC005 69 66     90%     29.96        
Aug 14 07:26 S 6 4 Fog/Mist OVC003 69 66     90%     29.96        
Aug 14 07:17 S 7 2.5 Fog/Mist OVC003 68 66     93%     29.96        
Aug 14 06:54 S 5 5 Fog/Mist OVC004 68 66     93%     29.96 29.96      
Aug 14 05:54 S 5 4 Fog/Mist OVC002 67 66     97%     29.96 29.96      
Aug 14 05:51 S 5 3 Fog/Mist OVC002 66 66     100%     29.96        
Aug 14 05:22 S 8 2 Fog/Mist OVC002 67 65     93%     29.96        
Aug 14 04:32 S 7 7 Mostly Cloudy BKN008 67 65     93%     29.97        
Aug 14 04:22 S 7 7 Partly Cloudy FEW003 SCT008 66 64     93%     29.97        
Aug 14 03:54 S 6 8 Clear CLR 66 64     93%     29.97 29.97      
Aug 14 02:54 S 5 9 Clear CLR 67 64     90%     29.98 29.98      
Aug 14 01:54 S 6 10 Clear CLR 68 65     90%     29.98 29.98      
Aug 14 00:54 S 5 10 Clear CLR 68 65     90%     29.99 29.99      
Aug 13 22:54 S 6 10 Clear CLR 70 65     84%     30 30      
Aug 13 20:54 S 3 10 Clear CLR 74 63     69%   74 30 30      
Aug 13 19:54 Calm 10 Clear CLR 76 63     64%   76 29.98 29.98      
Aug 13 18:54 S 6 10 Clear CLR 80 62     54%   81 29.98 29.98      
Aug 13 17:54 S 7 10 Clear CLR 83 60     46%   83 29.99 30      
Aug 13 16:54 SSW 7 10 Clear CLR 84 60     44%   84 30 30      
Aug 13 15:54 S 9 10 Mostly Clear FEW060 84 59     43%   84 30.02 30.03      
Aug 13 14:54 3 10 Partly Cloudy SCT060 85 60     43%   85 30.04 30.03      
Aug 13 13:54 SSE 9 10 Mostly Clear FEW055 84 60     44%   84 30.05 30.05      
Aug 13 12:54 5 10 Mostly Cloudy SCT046 BKN055 82 60     47%   82 30.07 30.07      
Aug 13 11:54 SW 8 10 Clear CLR 82 63     53%   83 30.08 30.09      
Aug 13 10:54 5 10 Clear CLR 80 63     56%   81 30.11 30.11      
Aug 13 09:54 S 5 10 Clear CLR 76 65     69%   76 30.12 30.12      
Aug 13 07:54 Calm 10 Clear CLR 66 61     84%     30.13 30.13      
Aug 13 06:54 S 5 10 Clear CLR 62 59     90%     30.13 30.14      
Aug 13 02:54 S 3 10 Clear CLR 63 60     90%     30.14 30.14      
Aug 12 23:54 S 3 10 Clear CLR 65 61     87%     30.14 30.14      
Aug 12 22:54 S 3 10 Clear CLR 67 60     79%     30.14 30.14      
May 14 17:54 WNW 13 10 Partly Cloudy SCT100 77 36     23%   75 29.66 29.67      
May 13 03:54 WSW 5 10 Mostly Clear FEW100 41 22     46% 38   30.08 30.1      
May 12 09:54 WSW 9 10 Clear CLR 47 17     30% 43   30.13 30.16      
May 12 02:54 W 6 10 Clear CLR 30 19     63% 24   30.1 30.13      
May 11 23:54 NNW 8 10 Clear CLR 34 20     56% 27   30.09 30.11      
Jun 11 17:54 W 15 10 Clear   87 57     36%   86 29.59 29.59      
Jun 11 11:54 SW 20 10 Clear and Windy CLR 85 60     43%   85 29.55 29.55      
Jun 08 22:54 SSW 7 10 Clear CLR 68 49     50%     29.75 29.75      
Jun 07 09:54 WSW 7 10 Clear CLR 65 43     45%     29.89 29.89      
Jun 06 03:54 NE 6 10 Clear CLR 43 39     86% 39   30.08 30.09